• In Österreich
  • Länderverzeichnis
  • Für 7 Tage
  • Wassertemperatur
  • Satellitenkarten
  • Wetterkarte
  • News
  • Widgets
  • user-avatar
    Anmelden

    Stündliche Wetter Kipungo

    Heute, 20 Juli, Freitag

    Zeit Temperatur Niederschläge Wind Luftdruck Luftfeuchtigkeit
    00:00 +15°C° 0 mm 1 m/S 655 mmHg 42%
    01:00 +14°C° 0 mm 1 m/S 655 mmHg 44%
    02:00 +14°C° 0 mm 1 m/S 654 mmHg 47%
    03:00 +13°C° 0 mm 1 m/S 654 mmHg 49%
    04:00 +12°C° 0 mm 1 m/S 654 mmHg 52%
    05:00 +12°C° 0 mm 1 m/S 654 mmHg 53%
    06:00 +12°C° 0 mm 1 m/S 654 mmHg 54%
    07:00 +12°C° 0 mm 1 m/S 654 mmHg 55%
    08:00 +15°C° 0 mm 2 m/S 655 mmHg 47%
    09:00 +19°C° 0 mm 3 m/S 656 mmHg 38%
    10:00 +22°C° 0 mm 4 m/S 657 mmHg 30%
    11:00 +25°C° 0 mm 3 m/S 657 mmHg 26%
    12:00 +27°C° 0 mm 3 m/S 656 mmHg 22%
    13:00 +29°C° 0 mm 3 m/S 656 mmHg 19%
    14:00 +29°C° 0 mm 2 m/S 655 mmHg 18%
    15:00 +29°C° 0 mm 2 m/S 655 mmHg 17%
    16:00 +29°C° 0 mm 2 m/S 654 mmHg 16%
    17:00 +26°C° 0 mm 1 m/S 654 mmHg 20%
    18:00 +24°C° 0 mm 1 m/S 654 mmHg 24%
    19:00 +21°C° 0 mm 1 m/S 653 mmHg 28%
    20:00 +20°C° 0 mm 1 m/S 654 mmHg 29%
    21:00 +19°C° 0 mm 1 m/S 654 mmHg 31%
    22:00 +18°C° 0 mm 1 m/S 654 mmHg 33%
    23:00 +16°C° 0 mm 1 m/S 654 mmHg 35%

    Morgen, 21 Juli, Samstag

    Zeit Temperatur Niederschläge Wind Luftdruck Luftfeuchtigkeit
    00:00 +15°C° 0 mm 1 m/S 654 mmHg 38%
    01:00 +14°C° 0 mm 1 m/S 654 mmHg 40%
    02:00 +14°C° 0 mm 1 m/S 654 mmHg 42%
    03:00 +13°C° 0 mm 1 m/S 653 mmHg 45%
    04:00 +13°C° 0 mm 1 m/S 653 mmHg 47%
    05:00 +13°C° 0 mm 1 m/S 653 mmHg 48%
    06:00 +12°C° 0 mm 1 m/S 654 mmHg 49%
    07:00 +12°C° 0 mm 1 m/S 654 mmHg 50%
    08:00 +16°C° 0 mm 2 m/S 655 mmHg 42%
    09:00 +20°C° 0 mm 2 m/S 656 mmHg 34%
    10:00 +24°C° 0 mm 3 m/S 657 mmHg 26%
    11:00 +27°C° 0 mm 3 m/S 657 mmHg 23%
    12:00 +29°C° 0 mm 2 m/S 657 mmHg 19%
    13:00 +31°C° 0 mm 2 m/S 657 mmHg 16%
    14:00 +31°C° 0 mm 2 m/S 656 mmHg 15%
    15:00 +31°C° 0 mm 1 m/S 656 mmHg 14%
    16:00 +31°C° 0 mm 1 m/S 655 mmHg 14%
    17:00 +28°C° 0 mm 1 m/S 655 mmHg 17%
    18:00 +25°C° 0 mm 1 m/S 655 mmHg 20%
    19:00 +22°C° 0 mm 1 m/S 654 mmHg 24%
    20:00 +21°C° 0 mm 1 m/S 655 mmHg 25%
    21:00 +20°C° 0 mm 1 m/S 655 mmHg 27%
    22:00 +19°C° 0 mm 1 m/S 655 mmHg 28%
    23:00 +18°C° 0 mm 1 m/S 655 mmHg 30%

    übermorgen, 22 Juli, Sonntag

    Zeit Temperatur Niederschläge Wind Luftdruck Luftfeuchtigkeit
    00:00 +18°C° 0 mm 1 m/S 655 mmHg 32%
    01:00 +16°C° 0 mm 1 m/S 655 mmHg 34%
    02:00 +15°C° 0 mm 1 m/S 654 mmHg 36%
    03:00 +14°C° 0 mm 1 m/S 654 mmHg 38%
    04:00 +14°C° 0 mm 1 m/S 654 mmHg 40%
    05:00 +14°C° 0 mm 1 m/S 654 mmHg 41%
    06:00 +14°C° 0 mm 1 m/S 654 mmHg 42%
    07:00 +14°C° 0 mm 1 m/S 655 mmHg 43%
    08:00 +17°C° 0 mm 2 m/S 656 mmHg 37%
    09:00 +21°C° 0 mm 3 m/S 657 mmHg 31%
    10:00 +25°C° 0 mm 4 m/S 658 mmHg 25%
    11:00 +28°C° 0 mm 3 m/S 657 mmHg 22%
    12:00 +30°C° 0 mm 3 m/S 657 mmHg 18%
    13:00 +32°C° 0 mm 2 m/S 657 mmHg 15%
    14:00 +32°C° 0 mm 2 m/S 656 mmHg 14%
    15:00 +32°C° 0 mm 2 m/S 656 mmHg 13%
    16:00 +32°C° 0 mm 1 m/S 656 mmHg 13%
    17:00 +29°C° 0 mm 1 m/S 655 mmHg 16%
    18:00 +26°C° 0 mm 1 m/S 655 mmHg 19%
    19:00 +23°C° 0 mm 1 m/S 655 mmHg 22%
    20:00 +22°C° 0 mm 1 m/S 655 mmHg 24%
    21:00 +21°C° 0 mm 1 m/S 656 mmHg 25%
    22:00 +20°C° 0 mm 1 m/S 656 mmHg 27%
    23:00 +19°C° 0 mm 1 m/S 656 mmHg 29%

    23 Juli, Montag

    Zeit Temperatur Niederschläge Wind Luftdruck Luftfeuchtigkeit
    00:00 +18°C° 0 mm 1 m/S 655 mmHg 31%
    01:00 +16°C° 0 mm 1 m/S 655 mmHg 33%
    02:00 +15°C° 0 mm 1 m/S 655 mmHg 35%
    03:00 +15°C° 0 mm 1 m/S 655 mmHg 37%
    04:00 +14°C° 0 mm 1 m/S 654 mmHg 39%
    05:00 +14°C° 0 mm 1 m/S 655 mmHg 40%
    06:00 +14°C° 0 mm 1 m/S 655 mmHg 41%
    07:00 +14°C° 0 mm 1 m/S 656 mmHg 42%
    08:00 +17°C° 0 mm 2 m/S 656 mmHg 36%
    09:00 +21°C° 0 mm 3 m/S 657 mmHg 30%
    10:00 +25°C° 0 mm 4 m/S 658 mmHg 24%
    11:00 +27°C° 0 mm 3 m/S 658 mmHg 21%
    12:00 +29°C° 0 mm 3 m/S 657 mmHg 18%
    13:00 +31°C° 0 mm 3 m/S 657 mmHg 15%
    14:00 +31°C° 0 mm 3 m/S 657 mmHg 14%
    15:00 +31°C° 0 mm 2 m/S 656 mmHg 14%
    16:00 +32°C° 0 mm 2 m/S 656 mmHg 13%
    17:00 +29°C° 0 mm 2 m/S 656 mmHg 16%
    18:00 +26°C° 0 mm 1 m/S 655 mmHg 18%
    19:00 +23°C° 0 mm 1 m/S 655 mmHg 21%
    20:00 +22°C° 0 mm 1 m/S 655 mmHg 23%
    21:00 +21°C° 0 mm 1 m/S 656 mmHg 24%
    22:00 +20°C° 0 mm 1 m/S 656 mmHg 25%
    23:00 +19°C° 0 mm 1 m/S 656 mmHg 27%

    24 Juli, Dienstag

    Zeit Temperatur Niederschläge Wind Luftdruck Luftfeuchtigkeit
    00:00 +18°C° 0 mm 1 m/S 655 mmHg 29%
    01:00 +16°C° 0 mm 1 m/S 655 mmHg 31%
    02:00 +15°C° 0 mm 1 m/S 655 mmHg 33%
    03:00 +14°C° 0 mm 1 m/S 655 mmHg 36%
    04:00 +14°C° 0 mm 1 m/S 654 mmHg 38%
    05:00 +14°C° 0 mm 1 m/S 655 mmHg 40%
    06:00 +14°C° 0 mm 1 m/S 655 mmHg 41%
    07:00 +14°C° 0 mm 1 m/S 655 mmHg 42%
    08:00 +17°C° 0 mm 2 m/S 656 mmHg 36%
    09:00 +21°C° 0 mm 3 m/S 657 mmHg 30%
    10:00 +26°C° 0 mm 4 m/S 658 mmHg 23%
    11:00 +28°C° 0 mm 3 m/S 658 mmHg 20%
    12:00 +30°C° 0 mm 3 m/S 657 mmHg 17%
    13:00 +32°C° 0 mm 2 m/S 657 mmHg 14%
    14:00 +32°C° 0 mm 2 m/S 656 mmHg 13%
    15:00 +32°C° 0 mm 2 m/S 656 mmHg 12%
    16:00 +32°C° 0 mm 2 m/S 656 mmHg 12%
    17:00 +29°C° 0 mm 1 m/S 655 mmHg 14%
    18:00 +26°C° 0 mm 1 m/S 655 mmHg 17%
    19:00 +23°C° 0 mm 1 m/S 655 mmHg 20%
    20:00 +22°C° 0 mm 1 m/S 655 mmHg 22%
    21:00 +21°C° 0 mm 1 m/S 655 mmHg 23%
    22:00 +20°C° 0 mm 1 m/S 655 mmHg 25%
    23:00 +19°C° 0 mm 1 m/S 655 mmHg 28%

    25 Juli, Mittwoch

    Zeit Temperatur Niederschläge Wind Luftdruck Luftfeuchtigkeit
    00:00 +18°C° 0 mm 1 m/S 655 mmHg 30%
    01:00 +16°C° 0 mm 1 m/S 654 mmHg 33%
    02:00 +15°C° 0 mm 1 m/S 654 mmHg 36%
    03:00 +15°C° 0 mm 1 m/S 654 mmHg 38%
    04:00 +14°C° 0 mm 1 m/S 654 mmHg 41%
    05:00 +14°C° 0 mm 1 m/S 654 mmHg 42%
    06:00 +14°C° 0 mm 1 m/S 654 mmHg 43%
    07:00 +14°C° 0 mm 1 m/S 654 mmHg 44%
    08:00 +18°C° 0 mm 2 m/S 655 mmHg 37%
    09:00 +21°C° 0 mm 2 m/S 656 mmHg 29%
    10:00 +26°C° 0 mm 3 m/S 657 mmHg 22%
    11:00 +28°C° 0 mm 3 m/S 657 mmHg 19%
    12:00 +30°C° 0 mm 2 m/S 657 mmHg 16%
    13:00 +32°C° 0 mm 2 m/S 656 mmHg 13%
    14:00 +32°C° 0 mm 1 m/S 656 mmHg 13%
    15:00 +32°C° 0 mm 1 m/S 656 mmHg 12%
    16:00 +32°C° 0 mm 1 m/S 655 mmHg 12%
    17:00 +29°C° 0 mm 1 m/S 655 mmHg 15%
    18:00 +26°C° 0 mm 1 m/S 654 mmHg 18%
    19:00 +23°C° 0 mm 1 m/S 654 mmHg 21%
    20:00 +22°C° 0 mm 1 m/S 654 mmHg 22%
    21:00 +21°C° 0 mm 1 m/S 655 mmHg 24%
    22:00 +20°C° 0 mm 1 m/S 655 mmHg 26%
    23:00 +19°C° 0 mm 1 m/S 655 mmHg 29%
    Mehr zeigen